#datetime,building,power
2022-12-16T00:00:00,thn,10.65
2022-12-16T00:01:00,thn,6.37
2022-12-16T00:02:00,thn,10.06
2022-12-16T00:03:00,thn,5.81
2022-12-16T00:04:00,thn,5.84
2022-12-16T00:05:00,thn,5.58
2022-12-16T00:06:00,thn,6.58
2022-12-16T00:07:00,thn,10.57
2022-12-16T00:08:00,thn,6.58
2022-12-16T00:09:00,thn,10.80
2022-12-16T00:10:00,thn,5.78
2022-12-16T00:11:00,thn,6.05
2022-12-16T00:12:00,thn,6.08
2022-12-16T00:13:00,thn,6.03
2022-12-16T00:14:00,thn,6.01
2022-12-16T00:15:00,thn,6.03
2022-12-16T00:16:00,thn,5.87
2022-12-16T00:17:00,thn,5.61
2022-12-16T00:18:00,thn,4.83
2022-12-16T00:19:00,thn,4.94
2022-12-16T00:20:00,thn,6.28
2022-12-16T00:21:00,thn,6.26
2022-12-16T00:22:00,thn,6.24
2022-12-16T00:23:00,thn,7.19
2022-12-16T00:24:00,thn,7.05
2022-12-16T00:25:00,thn,5.89
2022-12-16T00:26:00,thn,4.91
2022-12-16T00:27:00,thn,4.91
2022-12-16T00:28:00,thn,4.78
2022-12-16T00:29:00,thn,6.00
2022-12-16T00:30:00,thn,6.52
2022-12-16T00:31:00,thn,6.44
2022-12-16T00:32:00,thn,6.37
2022-12-16T00:33:00,thn,6.42
2022-12-16T00:34:00,thn,6.41
2022-12-16T00:35:00,thn,6.52
2022-12-16T00:36:00,thn,5.78
2022-12-16T00:37:00,thn,4.76
2022-12-16T00:38:00,thn,4.83
2022-12-16T00:39:00,thn,4.95
2022-12-16T00:40:00,thn,4.96
2022-12-16T00:41:00,thn,5.98
2022-12-16T00:42:00,thn,6.04
2022-12-16T00:43:00,thn,6.03
2022-12-16T00:44:00,thn,6.07
2022-12-16T00:45:00,thn,6.03
2022-12-16T00:46:00,thn,5.99
2022-12-16T00:47:00,thn,6.15
2022-12-16T00:48:00,thn,5.01
2022-12-16T00:49:00,thn,4.95
2022-12-16T00:50:00,thn,7.14
2022-12-16T00:51:00,thn,5.27
2022-12-16T00:52:00,thn,5.28
2022-12-16T00:53:00,thn,7.20
2022-12-16T00:54:00,thn,6.64
2022-12-16T00:55:00,thn,8.56
2022-12-16T00:56:00,thn,7.69
2022-12-16T00:57:00,thn,7.00
2022-12-16T00:58:00,thn,6.75
2022-12-16T00:59:00,thn,6.77
2022-12-16T01:00:00,thn,8.42
2022-12-16T01:01:00,thn,6.80
2022-12-16T01:02:00,thn,6.40
2022-12-16T01:03:00,thn,5.67
2022-12-16T01:04:00,thn,5.58
2022-12-16T01:05:00,thn,5.61
2022-12-16T01:06:00,thn,5.58
2022-12-16T01:07:00,thn,5.69
2022-12-16T01:08:00,thn,4.69
2022-12-16T01:09:00,thn,4.59
2022-12-16T01:10:00,thn,4.55
2022-12-16T01:11:00,thn,4.54
2022-12-16T01:12:00,thn,4.80
2022-12-16T01:13:00,thn,4.79
2022-12-16T01:14:00,thn,4.62
2022-12-16T01:15:00,thn,4.81
2022-12-16T01:16:00,thn,5.93
2022-12-16T01:17:00,thn,5.91
2022-12-16T01:18:00,thn,5.91
2022-12-16T01:19:00,thn,6.12
2022-12-16T01:20:00,thn,7.16
2022-12-16T01:21:00,thn,7.00
2022-12-16T01:22:00,thn,11.09
2022-12-16T01:23:00,thn,9.95
2022-12-16T01:24:00,thn,9.94
2022-12-16T01:25:00,thn,9.94
2022-12-16T01:26:00,thn,10.43
2022-12-16T01:27:00,thn,10.41
2022-12-16T01:28:00,thn,10.84
2022-12-16T01:29:00,thn,10.79
2022-12-16T01:30:00,thn,10.01
2022-12-16T01:31:00,thn,9.21
2022-12-16T01:32:00,thn,13.66
2022-12-16T01:33:00,thn,13.57
2022-12-16T01:34:00,thn,13.53
2022-12-16T01:35:00,thn,13.34
2022-12-16T01:36:00,thn,13.36
2022-12-16T01:37:00,thn,13.38
2022-12-16T01:38:00,thn,13.46
2022-12-16T01:39:00,thn,13.47
2022-12-16T01:40:00,thn,13.41
2022-12-16T01:41:00,thn,13.39
2022-12-16T01:42:00,thn,13.47
2022-12-16T01:43:00,thn,13.41
2022-12-16T01:44:00,thn,12.00
2022-12-16T01:45:00,thn,10.50
2022-12-16T01:46:00,thn,16.10
2022-12-16T01:47:00,thn,14.28
2022-12-16T01:48:00,thn,14.17
2022-12-16T01:49:00,thn,10.33
2022-12-16T01:50:00,thn,15.15
2022-12-16T01:51:00,thn,14.02
2022-12-16T01:52:00,thn,9.91
2022-12-16T01:53:00,thn,11.10
2022-12-16T01:54:00,thn,15.19
2022-12-16T01:55:00,thn,15.02
2022-12-16T01:56:00,thn,10.79
2022-12-16T01:57:00,thn,10.33
2022-12-16T01:58:00,thn,10.16
2022-12-16T01:59:00,thn,10.14
2022-12-16T02:00:00,thn,9.49
2022-12-16T02:01:00,thn,9.21
2022-12-16T02:02:00,thn,9.11
2022-12-16T02:03:00,thn,8.83
2022-12-16T02:04:00,thn,8.98
2022-12-16T02:05:00,thn,8.87
2022-12-16T02:06:00,thn,8.83
2022-12-16T02:07:00,thn,8.69
2022-12-16T02:08:00,thn,5.62
2022-12-16T02:09:00,thn,9.84
2022-12-16T02:10:00,thn,9.80
2022-12-16T02:11:00,thn,9.89
2022-12-16T02:12:00,thn,5.99
2022-12-16T02:13:00,thn,10.18
2022-12-16T02:14:00,thn,10.73
2022-12-16T02:15:00,thn,10.67
2022-12-16T02:16:00,thn,6.34
2022-12-16T02:17:00,thn,9.50
2022-12-16T02:18:00,thn,9.67
2022-12-16T02:19:00,thn,5.43
2022-12-16T02:20:00,thn,4.63
2022-12-16T02:21:00,thn,8.82
2022-12-16T02:22:00,thn,8.51
2022-12-16T02:23:00,thn,4.08
2022-12-16T02:24:00,thn,4.12
2022-12-16T02:25:00,thn,9.45
2022-12-16T02:26:00,thn,9.33
2022-12-16T02:27:00,thn,5.14
2022-12-16T02:28:00,thn,5.31
2022-12-16T02:29:00,thn,5.22
2022-12-16T02:30:00,thn,5.23
2022-12-16T02:31:00,thn,4.15
2022-12-16T02:32:00,thn,4.98
2022-12-16T02:33:00,thn,4.98
2022-12-16T02:34:00,thn,4.84
2022-12-16T02:35:00,thn,5.08
2022-12-16T02:36:00,thn,5.84
2022-12-16T02:37:00,thn,5.83
2022-12-16T02:38:00,thn,5.81
2022-12-16T02:39:00,thn,5.78
2022-12-16T02:40:00,thn,5.54
2022-12-16T02:41:00,thn,4.74
2022-12-16T02:42:00,thn,3.72
2022-12-16T02:43:00,thn,3.76
2022-12-16T02:44:00,thn,3.74
2022-12-16T02:45:00,thn,3.74
2022-12-16T02:46:00,thn,3.75
2022-12-16T02:47:00,thn,3.68
2022-12-16T02:48:00,thn,3.85
2022-12-16T02:49:00,thn,3.79
2022-12-16T02:50:00,thn,3.79
2022-12-16T02:51:00,thn,3.83
2022-12-16T02:52:00,thn,3.84
2022-12-16T02:53:00,thn,3.66
2022-12-16T02:54:00,thn,3.66
2022-12-16T02:55:00,thn,3.68
2022-12-16T02:56:00,thn,4.66
2022-12-16T02:57:00,thn,4.81
2022-12-16T02:58:00,thn,5.42
2022-12-16T02:59:00,thn,5.45
2022-12-16T03:00:00,thn,6.73
2022-12-16T03:01:00,thn,6.71
2022-12-16T03:02:00,thn,6.72
2022-12-16T03:03:00,thn,6.77
2022-12-16T03:04:00,thn,6.15
2022-12-16T03:05:00,thn,4.70
2022-12-16T03:06:00,thn,3.62
2022-12-16T03:07:00,thn,3.55
2022-12-16T03:08:00,thn,3.59
2022-12-16T03:09:00,thn,3.55
2022-12-16T03:10:00,thn,3.58
2022-12-16T03:11:00,thn,3.63
2022-12-16T03:12:00,thn,3.85
2022-12-16T03:13:00,thn,3.75
2022-12-16T03:14:00,thn,3.74
2022-12-16T03:15:00,thn,3.85
2022-12-16T03:16:00,thn,3.84
2022-12-16T03:17:00,thn,3.64
2022-12-16T03:18:00,thn,4.12
2022-12-16T03:19:00,thn,3.68
2022-12-16T03:20:00,thn,4.99
2022-12-16T03:21:00,thn,5.22
2022-12-16T03:22:00,thn,5.81
2022-12-16T03:23:00,thn,5.81
2022-12-16T03:24:00,thn,5.84
2022-12-16T03:25:00,thn,6.42
2022-12-16T03:26:00,thn,6.06
2022-12-16T03:27:00,thn,5.96
2022-12-16T03:28:00,thn,4.11
2022-12-16T03:29:00,thn,4.03
2022-12-16T03:30:00,thn,3.99
2022-12-16T03:31:00,thn,3.94
2022-12-16T03:32:00,thn,3.83
2022-12-16T03:33:00,thn,4.98
2022-12-16T03:34:00,thn,5.04
2022-12-16T03:35:00,thn,5.00
2022-12-16T03:36:00,thn,4.94
2022-12-16T03:37:00,thn,4.94
2022-12-16T03:38:00,thn,4.88
2022-12-16T03:39:00,thn,4.75
2022-12-16T03:40:00,thn,5.10
2022-12-16T03:41:00,thn,5.08
2022-12-16T03:42:00,thn,5.10
2022-12-16T03:43:00,thn,4.91
2022-12-16T03:44:00,thn,5.06
2022-12-16T03:45:00,thn,5.28
2022-12-16T03:46:00,thn,5.80
2022-12-16T03:47:00,thn,5.82
2022-12-16T03:48:00,thn,5.82
2022-12-16T03:49:00,thn,5.81
2022-12-16T03:50:00,thn,5.86
2022-12-16T03:51:00,thn,5.67
2022-12-16T03:52:00,thn,4.83
2022-12-16T03:53:00,thn,4.65
2022-12-16T03:54:00,thn,4.64
2022-12-16T03:55:00,thn,4.91
2022-12-16T03:56:00,thn,4.90
2022-12-16T03:57:00,thn,4.88
2022-12-16T03:58:00,thn,4.77
2022-12-16T03:59:00,thn,4.71
2022-12-16T04:00:00,thn,4.69
2022-12-16T04:01:00,thn,4.45
2022-12-16T04:02:00,thn,4.69
2022-12-16T04:03:00,thn,4.42
2022-12-16T04:04:00,thn,4.40
2022-12-16T04:05:00,thn,4.44
2022-12-16T04:06:00,thn,5.53
2022-12-16T04:07:00,thn,6.74
2022-12-16T04:08:00,thn,6.82
2022-12-16T04:09:00,thn,7.07
2022-12-16T04:10:00,thn,7.68
2022-12-16T04:11:00,thn,7.62
2022-12-16T04:12:00,thn,7.18
2022-12-16T04:13:00,thn,6.34
2022-12-16T04:14:00,thn,4.38
2022-12-16T04:15:00,thn,4.31
2022-12-16T04:16:00,thn,3.52
2022-12-16T04:17:00,thn,3.48
2022-12-16T04:18:00,thn,3.48
2022-12-16T04:19:00,thn,3.45
2022-12-16T04:20:00,thn,4.37
2022-12-16T04:21:00,thn,4.42
2022-12-16T04:22:00,thn,4.48
2022-12-16T04:23:00,thn,4.48
2022-12-16T04:24:00,thn,5.56
2022-12-16T04:25:00,thn,5.61
2022-12-16T04:26:00,thn,5.62
2022-12-16T04:27:00,thn,5.61
2022-12-16T04:28:00,thn,4.45
2022-12-16T04:29:00,thn,4.75
2022-12-16T04:30:00,thn,3.68
2022-12-16T04:31:00,thn,3.56
2022-12-16T04:32:00,thn,3.53
2022-12-16T04:33:00,thn,3.96
2022-12-16T04:34:00,thn,3.99
2022-12-16T04:35:00,thn,5.43
2022-12-16T04:36:00,thn,8.93
2022-12-16T04:37:00,thn,7.83
2022-12-16T04:38:00,thn,7.81
2022-12-16T04:39:00,thn,7.81
2022-12-16T04:40:00,thn,7.59
2022-12-16T04:41:00,thn,7.00
2022-12-16T04:42:00,thn,6.34
2022-12-16T04:43:00,thn,5.13
2022-12-16T04:44:00,thn,3.90
2022-12-16T04:45:00,thn,3.87
2022-12-16T04:46:00,thn,3.80
2022-12-16T04:47:00,thn,3.75
2022-12-16T04:48:00,thn,3.81
2022-12-16T04:49:00,thn,3.80
2022-12-16T04:50:00,thn,4.65
2022-12-16T04:51:00,thn,4.66
2022-12-16T04:52:00,thn,4.71
2022-12-16T04:53:00,thn,4.75
2022-12-16T04:54:00,thn,4.67
2022-12-16T04:55:00,thn,4.66
2022-12-16T04:56:00,thn,4.71
2022-12-16T04:57:00,thn,4.41
2022-12-16T04:58:00,thn,3.66
2022-12-16T04:59:00,thn,4.95
2022-12-16T05:00:00,thn,5.13
2022-12-16T05:01:00,thn,5.72
2022-12-16T05:02:00,thn,5.58
2022-12-16T05:03:00,thn,4.50
2022-12-16T05:04:00,thn,5.22
2022-12-16T05:05:00,thn,5.22
2022-12-16T05:06:00,thn,5.22
2022-12-16T05:07:00,thn,5.49
2022-12-16T05:08:00,thn,6.64
2022-12-16T05:09:00,thn,5.71
2022-12-16T05:10:00,thn,5.70
2022-12-16T05:11:00,thn,5.70
2022-12-16T05:12:00,thn,5.66
2022-12-16T05:13:00,thn,5.66
2022-12-16T05:14:00,thn,4.80
2022-12-16T05:15:00,thn,3.83
2022-12-16T05:16:00,thn,3.78
2022-12-16T05:17:00,thn,3.72
2022-12-16T05:18:00,thn,3.64
2022-12-16T05:19:00,thn,3.77
2022-12-16T05:20:00,thn,3.73
2022-12-16T05:21:00,thn,3.69
2022-12-16T05:22:00,thn,3.70
2022-12-16T05:23:00,thn,4.19
2022-12-16T05:24:00,thn,4.16
2022-12-16T05:25:00,thn,4.35
2022-12-16T05:26:00,thn,4.41
2022-12-16T05:27:00,thn,8.43
2022-12-16T05:28:00,thn,7.32
2022-12-16T05:29:00,thn,6.98
2022-12-16T05:30:00,thn,6.98
2022-12-16T05:31:00,thn,5.94
2022-12-16T05:32:00,thn,5.18
2022-12-16T05:33:00,thn,4.20
2022-12-16T05:34:00,thn,5.25
2022-12-16T05:35:00,thn,4.81
2022-12-16T05:36:00,thn,5.26
2022-12-16T05:37:00,thn,5.23
2022-12-16T05:38:00,thn,4.84
2022-12-16T05:39:00,thn,5.96
2022-12-16T05:40:00,thn,4.97
2022-12-16T05:41:00,thn,4.95
2022-12-16T05:42:00,thn,5.06
2022-12-16T05:43:00,thn,4.95
2022-12-16T05:44:00,thn,4.94
2022-12-16T05:45:00,thn,6.44
2022-12-16T05:46:00,thn,6.20
2022-12-16T05:47:00,thn,6.22
2022-12-16T05:48:00,thn,4.55
2022-12-16T05:49:00,thn,4.62
2022-12-16T05:50:00,thn,4.37
2022-12-16T05:51:00,thn,3.88
2022-12-16T05:52:00,thn,3.79
2022-12-16T05:53:00,thn,4.40
2022-12-16T05:54:00,thn,4.45
2022-12-16T05:55:00,thn,4.64
2022-12-16T05:56:00,thn,4.58
2022-12-16T05:57:00,thn,4.62
2022-12-16T05:58:00,thn,3.86
2022-12-16T05:59:00,thn,3.86
2022-12-16T06:00:00,thn,3.75
2022-12-16T06:01:00,thn,4.64
2022-12-16T06:02:00,thn,5.12
2022-12-16T06:03:00,thn,4.76
2022-12-16T06:04:00,thn,5.72
2022-12-16T06:05:00,thn,8.01
2022-12-16T06:06:00,thn,6.42
2022-12-16T06:07:00,thn,5.99
2022-12-16T06:08:00,thn,7.87
2022-12-16T06:09:00,thn,5.95
2022-12-16T06:10:00,thn,6.01
2022-12-16T06:11:00,thn,4.98
2022-12-16T06:12:00,thn,4.60
2022-12-16T06:13:00,thn,4.60
2022-12-16T06:14:00,thn,4.59
2022-12-16T06:15:00,thn,3.46
2022-12-16T06:16:00,thn,3.46
2022-12-16T06:17:00,thn,3.66
2022-12-16T06:18:00,thn,4.38
2022-12-16T06:19:00,thn,4.27
2022-12-16T06:20:00,thn,4.43
2022-12-16T06:21:00,thn,4.44
2022-12-16T06:22:00,thn,4.44
2022-12-16T06:23:00,thn,5.35
2022-12-16T06:24:00,thn,4.61
2022-12-16T06:25:00,thn,4.42
2022-12-16T06:26:00,thn,4.37
2022-12-16T06:27:00,thn,5.09
2022-12-16T06:28:00,thn,4.48
2022-12-16T06:29:00,thn,3.64
2022-12-16T06:30:00,thn,3.65
2022-12-16T06:31:00,thn,3.56
2022-12-16T06:32:00,thn,3.47
2022-12-16T06:33:00,thn,3.39
2022-12-16T06:34:00,thn,3.44
2022-12-16T06:35:00,thn,4.47
2022-12-16T06:36:00,thn,4.42
2022-12-16T06:37:00,thn,4.43
2022-12-16T06:38:00,thn,6.57
2022-12-16T06:39:00,thn,6.59
2022-12-16T06:40:00,thn,7.51
2022-12-16T06:41:00,thn,7.46
2022-12-16T06:42:00,thn,5.42
2022-12-16T06:43:00,thn,5.30
2022-12-16T06:44:00,thn,4.87
2022-12-16T06:45:00,thn,4.32
2022-12-16T06:46:00,thn,4.53
2022-12-16T06:47:00,thn,4.45
2022-12-16T06:48:00,thn,4.44
2022-12-16T06:49:00,thn,4.50
2022-12-16T06:50:00,thn,4.31
2022-12-16T06:51:00,thn,3.31
2022-12-16T06:52:00,thn,3.32
2022-12-16T06:53:00,thn,3.30
2022-12-16T06:54:00,thn,3.45
2022-12-16T06:55:00,thn,3.40
2022-12-16T06:56:00,thn,3.41
2022-12-16T06:57:00,thn,3.45
2022-12-16T06:58:00,thn,3.52
2022-12-16T06:59:00,thn,3.42
2022-12-16T07:00:00,thn,4.89
2022-12-16T07:01:00,thn,4.37
2022-12-16T07:02:00,thn,4.59
2022-12-16T07:03:00,thn,4.46
2022-12-16T07:04:00,thn,4.57
2022-12-16T07:05:00,thn,4.60
2022-12-16T07:06:00,thn,5.49
2022-12-16T07:07:00,thn,4.63
2022-12-16T07:08:00,thn,4.55
2022-12-16T07:09:00,thn,5.62
2022-12-16T07:10:00,thn,5.62
2022-12-16T07:11:00,thn,5.84
2022-12-16T07:12:00,thn,6.42
2022-12-16T07:13:00,thn,6.72
2022-12-16T07:14:00,thn,6.74
2022-12-16T07:15:00,thn,6.45
2022-12-16T07:16:00,thn,5.59
2022-12-16T07:17:00,thn,4.56
2022-12-16T07:18:00,thn,3.56
2022-12-16T07:19:00,thn,3.61
2022-12-16T07:20:00,thn,3.57
2022-12-16T07:21:00,thn,4.92
2022-12-16T07:22:00,thn,4.58
2022-12-16T07:23:00,thn,4.54
2022-12-16T07:24:00,thn,6.12
2022-12-16T07:25:00,thn,4.59
2022-12-16T07:26:00,thn,3.74
2022-12-16T07:27:00,thn,3.67
2022-12-16T07:28:00,thn,3.68
2022-12-16T07:29:00,thn,3.98
2022-12-16T07:30:00,thn,3.85
2022-12-16T07:31:00,thn,3.88
2022-12-16T07:32:00,thn,3.89
2022-12-16T07:33:00,thn,3.88
2022-12-16T07:34:00,thn,3.83
2022-12-16T07:35:00,thn,3.52
2022-12-16T07:36:00,thn,3.50
2022-12-16T07:37:00,thn,3.48
2022-12-16T07:38:00,thn,4.77
2022-12-16T07:39:00,thn,4.72
2022-12-16T07:40:00,thn,6.21
2022-12-16T07:41:00,thn,7.42
2022-12-16T07:42:00,thn,7.45
2022-12-16T07:43:00,thn,9.56
2022-12-16T07:44:00,thn,7.46
2022-12-16T07:45:00,thn,6.38
2022-12-16T07:46:00,thn,5.69
2022-12-16T07:47:00,thn,4.57
2022-12-16T07:48:00,thn,4.29
2022-12-16T07:49:00,thn,3.41
2022-12-16T07:50:00,thn,3.38
2022-12-16T07:51:00,thn,3.38
2022-12-16T07:52:00,thn,3.46
2022-12-16T07:53:00,thn,3.48
2022-12-16T07:54:00,thn,3.42
2022-12-16T07:55:00,thn,3.34
2022-12-16T07:56:00,thn,3.33
2022-12-16T07:57:00,thn,3.34
2022-12-16T07:58:00,thn,3.26
2022-12-16T07:59:00,thn,3.52
2022-12-16T08:00:00,thn,3.51
2022-12-16T08:01:00,thn,3.55
2022-12-16T08:02:00,thn,3.49
2022-12-16T08:03:00,thn,3.42
2022-12-16T08:04:00,thn,3.69
2022-12-16T08:05:00,thn,3.72
2022-12-16T08:06:00,thn,3.73
2022-12-16T08:07:00,thn,4.85
2022-12-16T08:08:00,thn,5.60
2022-12-16T08:09:00,thn,5.48
2022-12-16T08:10:00,thn,5.54
2022-12-16T08:11:00,thn,5.49
2022-12-16T08:12:00,thn,5.46
2022-12-16T08:13:00,thn,3.55
2022-12-16T08:14:00,thn,3.34
2022-12-16T08:15:00,thn,3.31
2022-12-16T08:16:00,thn,4.34
2022-12-16T08:17:00,thn,5.40
2022-12-16T08:18:00,thn,5.33
2022-12-16T08:19:00,thn,5.30
2022-12-16T08:20:00,thn,4.22
2022-12-16T08:21:00,thn,4.30
2022-12-16T08:22:00,thn,4.32
2022-12-16T08:23:00,thn,4.28
2022-12-16T08:24:00,thn,3.26
2022-12-16T08:25:00,thn,3.30
2022-12-16T08:26:00,thn,3.30
2022-12-16T08:27:00,thn,3.25
2022-12-16T08:28:00,thn,3.23
2022-12-16T08:29:00,thn,3.45
2022-12-16T08:30:00,thn,3.49
2022-12-16T08:31:00,thn,3.48
2022-12-16T08:32:00,thn,3.47
2022-12-16T08:33:00,thn,3.49
2022-12-16T08:34:00,thn,3.70
2022-12-16T08:35:00,thn,3.49
2022-12-16T08:36:00,thn,3.98
2022-12-16T08:37:00,thn,3.98
2022-12-16T08:38:00,thn,5.06
2022-12-16T08:39:00,thn,5.05
2022-12-16T08:40:00,thn,4.99
2022-12-16T08:41:00,thn,4.28
2022-12-16T08:42:00,thn,4.30
2022-12-16T08:43:00,thn,4.25
2022-12-16T08:44:00,thn,4.09
2022-12-16T08:45:00,thn,3.41
2022-12-16T08:46:00,thn,5.60
2022-12-16T08:47:00,thn,5.66
2022-12-16T08:48:00,thn,5.70
2022-12-16T08:49:00,thn,5.83
2022-12-16T08:50:00,thn,4.73
2022-12-16T08:51:00,thn,4.70
2022-12-16T08:52:00,thn,4.68
2022-12-16T08:53:00,thn,4.71
2022-12-16T08:54:00,thn,3.65
2022-12-16T08:55:00,thn,3.51
2022-12-16T08:56:00,thn,3.76
2022-12-16T08:57:00,thn,3.84
2022-12-16T08:58:00,thn,3.79
2022-12-16T08:59:00,thn,3.75
2022-12-16T09:00:00,thn,3.62
2022-12-16T09:01:00,thn,3.64
2022-12-16T09:02:00,thn,4.15
2022-12-16T09:03:00,thn,3.93
2022-12-16T09:04:00,thn,4.94
2022-12-16T09:05:00,thn,4.92
2022-12-16T09:06:00,thn,4.85
2022-12-16T09:07:00,thn,6.80
2022-12-16T09:08:00,thn,5.94
2022-12-16T09:09:00,thn,5.04
2022-12-16T09:10:00,thn,5.15
2022-12-16T09:11:00,thn,5.04
2022-12-16T09:12:00,thn,5.12
2022-12-16T09:13:00,thn,5.13
2022-12-16T09:14:00,thn,4.97
2022-12-16T09:15:00,thn,5.24
2022-12-16T09:16:00,thn,5.41
2022-12-16T09:17:00,thn,4.95
2022-12-16T09:18:00,thn,4.95
2022-12-16T09:19:00,thn,4.97
2022-12-16T09:20:00,thn,4.61
2022-12-16T09:21:00,thn,4.56
2022-12-16T09:22:00,thn,4.54
2022-12-16T09:23:00,thn,3.70
2022-12-16T09:24:00,thn,3.61
2022-12-16T09:25:00,thn,5.26
2022-12-16T09:26:00,thn,5.26
2022-12-16T09:27:00,thn,5.03
2022-12-16T09:28:00,thn,4.88
2022-12-16T09:29:00,thn,3.94
2022-12-16T09:30:00,thn,4.21
2022-12-16T09:31:00,thn,4.23
2022-12-16T09:32:00,thn,4.73
2022-12-16T09:33:00,thn,4.13
2022-12-16T09:34:00,thn,4.08
2022-12-16T09:35:00,thn,4.89
2022-12-16T09:36:00,thn,5.71
2022-12-16T09:37:00,thn,5.04
2022-12-16T09:38:00,thn,5.15
2022-12-16T09:39:00,thn,5.16
2022-12-16T09:40:00,thn,5.11
2022-12-16T09:41:00,thn,5.22
2022-12-16T09:42:00,thn,4.90
2022-12-16T09:43:00,thn,3.95
2022-12-16T09:44:00,thn,5.03
2022-12-16T09:45:00,thn,5.00
2022-12-16T09:46:00,thn,4.81
2022-12-16T09:47:00,thn,4.83
2022-12-16T09:48:00,thn,4.82
2022-12-16T09:49:00,thn,5.01
2022-12-16T09:50:00,thn,5.05
2022-12-16T09:51:00,thn,5.18
2022-12-16T09:52:00,thn,4.19
2022-12-16T09:53:00,thn,4.20
2022-12-16T09:54:00,thn,3.99
2022-12-16T09:55:00,thn,3.90
2022-12-16T09:56:00,thn,3.89
2022-12-16T09:57:00,thn,6.25
2022-12-16T09:58:00,thn,5.19
2022-12-16T09:59:00,thn,5.73
2022-12-16T10:00:00,thn,5.77
2022-12-16T10:01:00,thn,4.71
2022-12-16T10:02:00,thn,4.67
2022-12-16T10:03:00,thn,5.73
2022-12-16T10:04:00,thn,5.15
2022-12-16T10:05:00,thn,4.94
2022-12-16T10:06:00,thn,5.15
2022-12-16T10:07:00,thn,5.09
2022-12-16T10:08:00,thn,5.11
2022-12-16T10:09:00,thn,4.90
2022-12-16T10:10:00,thn,3.85
2022-12-16T10:11:00,thn,3.86
2022-12-16T10:12:00,thn,3.99
2022-12-16T10:13:00,thn,5.22
2022-12-16T10:14:00,thn,5.24
2022-12-16T10:15:00,thn,5.33
2022-12-16T10:16:00,thn,5.57
2022-12-16T10:17:00,thn,5.58
2022-12-16T10:18:00,thn,5.51
2022-12-16T10:19:00,thn,5.31
2022-12-16T10:20:00,thn,5.25
2022-12-16T10:21:00,thn,4.96
2022-12-16T10:22:00,thn,3.90
2022-12-16T10:23:00,thn,3.91
2022-12-16T10:24:00,thn,4.15
2022-12-16T10:25:00,thn,4.71
2022-12-16T10:26:00,thn,4.67
2022-12-16T10:27:00,thn,4.56
2022-12-16T10:28:00,thn,4.66
2022-12-16T10:29:00,thn,4.66
2022-12-16T10:30:00,thn,7.90
2022-12-16T10:31:00,thn,7.41
2022-12-16T10:32:00,thn,6.41
2022-12-16T10:33:00,thn,6.17
2022-12-16T10:34:00,thn,6.42
2022-12-16T10:35:00,thn,6.57
2022-12-16T10:36:00,thn,5.21
2022-12-16T10:37:00,thn,4.31
2022-12-16T10:38:00,thn,4.32
2022-12-16T10:39:00,thn,4.15
2022-12-16T10:40:00,thn,5.50
2022-12-16T10:41:00,thn,5.62
2022-12-16T10:42:00,thn,4.58
2022-12-16T10:43:00,thn,4.46
2022-12-16T10:44:00,thn,5.48
2022-12-16T10:45:00,thn,5.71
2022-12-16T10:46:00,thn,5.63
2022-12-16T10:47:00,thn,5.66
2022-12-16T10:48:00,thn,5.45
2022-12-16T10:49:00,thn,5.34
2022-12-16T10:50:00,thn,5.33
2022-12-16T10:51:00,thn,4.55
2022-12-16T10:52:00,thn,4.08
2022-12-16T10:53:00,thn,4.02
2022-12-16T10:54:00,thn,4.01
2022-12-16T10:55:00,thn,4.00
2022-12-16T10:56:00,thn,3.98
2022-12-16T10:57:00,thn,3.94
2022-12-16T10:58:00,thn,3.98
2022-12-16T10:59:00,thn,3.94
2022-12-16T11:00:00,thn,4.04
2022-12-16T11:01:00,thn,4.02
2022-12-16T11:02:00,thn,4.19
2022-12-16T11:03:00,thn,4.27
2022-12-16T11:04:00,thn,9.22
2022-12-16T11:05:00,thn,9.03
2022-12-16T11:06:00,thn,9.14
2022-12-16T11:07:00,thn,9.12
2022-12-16T11:08:00,thn,9.11
2022-12-16T11:09:00,thn,10.51
2022-12-16T11:10:00,thn,9.47
2022-12-16T11:11:00,thn,11.49
2022-12-16T11:12:00,thn,11.49
2022-12-16T11:13:00,thn,10.54
2022-12-16T11:14:00,thn,10.48
2022-12-16T11:15:00,thn,10.53
2022-12-16T11:16:00,thn,10.50
2022-12-16T11:17:00,thn,10.62
2022-12-16T11:18:00,thn,10.52
2022-12-16T11:19:00,thn,8.50
2022-12-16T11:20:00,thn,8.46
2022-12-16T11:21:00,thn,8.45
2022-12-16T11:22:00,thn,8.44
2022-12-16T11:23:00,thn,8.52
2022-12-16T11:24:00,thn,8.22
2022-12-16T11:25:00,thn,9.77
2022-12-16T11:26:00,thn,9.68
2022-12-16T11:27:00,thn,10.41
2022-12-16T11:28:00,thn,10.23
2022-12-16T11:29:00,thn,8.92
2022-12-16T11:30:00,thn,9.02
2022-12-16T11:31:00,thn,10.27
2022-12-16T11:32:00,thn,10.39
2022-12-16T11:33:00,thn,10.11
2022-12-16T11:34:00,thn,9.79
2022-12-16T11:35:00,thn,9.61
2022-12-16T11:36:00,thn,9.49
2022-12-16T11:37:00,thn,9.67
2022-12-16T11:38:00,thn,5.66
2022-12-16T11:39:00,thn,5.54
2022-12-16T11:40:00,thn,10.56
2022-12-16T11:41:00,thn,10.58
2022-12-16T11:42:00,thn,10.41
2022-12-16T11:43:00,thn,6.41
2022-12-16T11:44:00,thn,6.67
2022-12-16T11:45:00,thn,8.43
2022-12-16T11:46:00,thn,9.63
2022-12-16T11:47:00,thn,10.64
2022-12-16T11:48:00,thn,11.22
2022-12-16T11:49:00,thn,7.26
2022-12-16T11:50:00,thn,7.30
2022-12-16T11:51:00,thn,11.46
2022-12-16T11:52:00,thn,11.36
2022-12-16T11:53:00,thn,11.28
2022-12-16T11:54:00,thn,6.17
2022-12-16T11:55:00,thn,7.21
2022-12-16T11:56:00,thn,11.44
2022-12-16T11:57:00,thn,10.26
2022-12-16T11:58:00,thn,8.47
2022-12-16T11:59:00,thn,8.73
2022-12-16T12:00:00,thn,4.53
2022-12-16T12:01:00,thn,4.25
2022-12-16T12:02:00,thn,8.50
2022-12-16T12:03:00,thn,4.63
2022-12-16T12:04:00,thn,4.71
2022-12-16T12:05:00,thn,5.43
2022-12-16T12:06:00,thn,5.33
2022-12-16T12:07:00,thn,5.60
2022-12-16T12:08:00,thn,5.24
2022-12-16T12:09:00,thn,4.81
2022-12-16T12:10:00,thn,4.81
2022-12-16T12:11:00,thn,4.82
2022-12-16T12:12:00,thn,4.77
2022-12-16T12:13:00,thn,6.50
2022-12-16T12:14:00,thn,5.95
2022-12-16T12:15:00,thn,5.32
2022-12-16T12:16:00,thn,5.27
2022-12-16T12:17:00,thn,5.25
2022-12-16T12:18:00,thn,4.92
2022-12-16T12:19:00,thn,3.97
2022-12-16T12:20:00,thn,5.06
2022-12-16T12:21:00,thn,5.09
2022-12-16T12:22:00,thn,5.17
2022-12-16T12:23:00,thn,5.46
2022-12-16T12:24:00,thn,9.99
2022-12-16T12:25:00,thn,10.53
2022-12-16T12:26:00,thn,9.35
2022-12-16T12:27:00,thn,13.65
2022-12-16T12:28:00,thn,13.87
2022-12-16T12:29:00,thn,13.81
2022-12-16T12:30:00,thn,9.52
2022-12-16T12:31:00,thn,14.66
2022-12-16T12:32:00,thn,14.52
2022-12-16T12:33:00,thn,14.49
2022-12-16T12:34:00,thn,10.48
2022-12-16T12:35:00,thn,13.66
2022-12-16T12:36:00,thn,13.68
2022-12-16T12:37:00,thn,9.59
2022-12-16T12:38:00,thn,13.72
2022-12-16T12:39:00,thn,12.64
2022-12-16T12:40:00,thn,12.72
2022-12-16T12:41:00,thn,8.59
2022-12-16T12:42:00,thn,13.67
2022-12-16T12:43:00,thn,13.90
2022-12-16T12:44:00,thn,10.44
2022-12-16T12:45:00,thn,14.33
2022-12-16T12:46:00,thn,13.30
2022-12-16T12:47:00,thn,9.21
2022-12-16T12:48:00,thn,13.41
2022-12-16T12:49:00,thn,13.11
2022-12-16T12:50:00,thn,10.33
2022-12-16T12:51:00,thn,9.43
2022-12-16T12:52:00,thn,13.08
2022-12-16T12:53:00,thn,14.24
2022-12-16T12:54:00,thn,10.22
2022-12-16T12:55:00,thn,9.74
2022-12-16T12:56:00,thn,9.73
2022-12-16T12:57:00,thn,9.67
2022-12-16T12:58:00,thn,13.68
2022-12-16T12:59:00,thn,12.63
2022-12-16T13:00:00,thn,8.57
2022-12-16T13:01:00,thn,12.63
2022-12-16T13:02:00,thn,12.40
2022-12-16T13:03:00,thn,4.49
2022-12-16T13:04:00,thn,9.08
2022-12-16T13:05:00,thn,13.32
2022-12-16T13:06:00,thn,9.17
2022-12-16T13:07:00,thn,14.25
2022-12-16T13:08:00,thn,10.00
2022-12-16T13:09:00,thn,10.29
2022-12-16T13:10:00,thn,10.39
2022-12-16T13:11:00,thn,9.08
2022-12-16T13:12:00,thn,17.03
2022-12-16T13:13:00,thn,17.15
2022-12-16T13:14:00,thn,12.12
2022-12-16T13:15:00,thn,14.36
2022-12-16T13:16:00,thn,14.32
2022-12-16T13:17:00,thn,6.18
2022-12-16T13:18:00,thn,10.24
2022-12-16T13:19:00,thn,14.20
2022-12-16T13:20:00,thn,10.25
2022-12-16T13:21:00,thn,14.36
2022-12-16T13:22:00,thn,10.29
2022-12-16T13:23:00,thn,6.46
2022-12-16T13:24:00,thn,7.76
2022-12-16T13:25:00,thn,11.84
2022-12-16T13:26:00,thn,7.79
2022-12-16T13:27:00,thn,7.81
2022-12-16T13:28:00,thn,7.91
2022-12-16T13:29:00,thn,7.91
2022-12-16T13:30:00,thn,7.68
2022-12-16T13:31:00,thn,6.42
2022-12-16T13:32:00,thn,6.57
2022-12-16T13:33:00,thn,6.70
2022-12-16T13:34:00,thn,6.87
2022-12-16T13:35:00,thn,6.10
2022-12-16T13:36:00,thn,5.96
2022-12-16T13:37:00,thn,5.90
2022-12-16T13:38:00,thn,6.68
2022-12-16T13:39:00,thn,10.89
2022-12-16T13:40:00,thn,10.88
2022-12-16T13:41:00,thn,10.99